Погода в Агрия

Россия / Краснодарский край     44°12′15″N   38°51′57″E
темп.,
°C
ветер,
м/с
пор.,
м/с
влажн.,
%
обл.,
%
осадки,
мм/ч
давл.,
гПа
погр.,
м
24 июля, сб
сб2400:00+22ссв56702 0.0 1010178
03:00+21ссв676536 0.0 1010186
06:00+21ссв676362 0.0 1010174
09:00+24св57570 0.0 1010459
12:00+28ссв23520 0.0 1009465
15:00+29с02477 0.0 1009555
18:00+27юв33612 0.0 1009251
21:00+25св58610 0.0 1010220
25 июля, вс
вс2500:00+23св46610 0.0 1011156
03:00+21св45710 0.3 1012159
06:00+21св56760 0.0 1012191
09:00+26всв47570 0.0 1012687
12:00+26ю556530 0.0 1013659
15:00+26зюз436838 0.0 1013314
18:00+27з23681 0.0 1012163
21:00+27св713600 0.0 1012493
26 июля, пн
пн2600:00+25всв46640 0.0 1012295
03:00+24св55660 0.0 1013171
06:00+21св55764 0.3 1013139
09:00+23св337818 2.0 1014226
12:00+26ссв127168 2.1 1014317
15:00+28зюз65684 2.1 1013554
18:00+27з56765 0.0 1012385
21:00+26зюз117569 0.0 1013135
27 июля, вт
вт2700:00+25в56754 0.0 1013226
03:00+25юв457997 0.3 1013657
06:00+22ссв558440 3.1 1013156
09:00+22св3482100 11.3 1014287
12:00+27св3460100 0.0 1014501
15:00+28ю346040 0.0 1014454
18:00+26св811575 0.0 1014741
21:00+24св915533 0.0 1015577
28 июля, ср
ср2800:00+25св715480 0.0 1015974
03:00+24св917490 0.0 10141052
06:00+24св1117510 0.0 10141029
09:00+26св1016480 0.0 10151166
12:00+29св812390 0.0 1014611
15:00+30св79390 0.0 1013472
18:00+29св610450 0.0 1013436
21:00+26св716470 0.0 1014657